This is the latest recevied weather packets stored in our database for station/object WX7FGZ-7. If no packets are shown the sender has not sent any weather packets the latest 10 day(s).
| Time | Temp. | Humidity | Pressure | Rain* | Wind** | Luminosity | Snow |
|---|---|---|---|---|---|---|---|
| 1777512942 | 21.11° C | 15% | 1015 hPa | 0 mm | - | - | - |
| 1777512324 | 21.67° C | 15% | 1014.8 hPa | 0 mm | - | - | - |
| 1777512028 | 21.67° C | 14% | 1014.8 hPa | 0 mm | - | - | - |
| 1777511538 | 22.78° C | 14% | 1015.2 hPa | 0 mm | - | - | - |
| 1777511492 | 22.78° C | 14% | 1015 hPa | 0 mm | - | - | - |
| 1777511172 | 22.78° C | 14% | 1015.2 hPa | 0 mm | - | - | - |
| 1777511160 | 22.78° C | 14% | 1015.3 hPa | 0 mm | - | - | - |
| 1777510871 | 22.78° C | 14% | 1015.3 hPa | 0 mm | - | - | - |
| 1777510274 | 22.78° C | 14% | 1015 hPa | 0 mm | - | - | - |
| 1777509734 | 23.33° C | 13% | 1015.1 hPa | 0 mm | - | - | - |
| 1777509695 | 23.33° C | 13% | 1015.1 hPa | 0 mm | - | - | - |
| 1777509371 | 23.33° C | 13% | 1015.1 hPa | 0 mm | - | - | - |
| 1777509335 | 23.89° C | 12% | 1015.1 hPa | 0 mm | - | - | - |
| 1777509085 | 23.89° C | 12% | 1015.1 hPa | 0 mm | - | - | - |
| 1777507190 | 23.89° C | 12% | 1015.4 hPa | 0 mm | - | - | - |
| 1777506328 | 24.44° C | 11% | 1015.5 hPa | 0 mm | - | - | - |
| 1777505433 | 24.44° C | 13% | 1015.6 hPa | 0 mm | - | - | - |
| 1777504831 | 25° C | 13% | 1015.7 hPa | 0 mm | - | - | - |
| 1777503035 | 25° C | 13% | 1016.2 hPa | 0 mm | - | - | - |
| 1777502416 | 24.44° C | 14% | 1016.2 hPa | 0 mm | - | - | - |
| 1777502115 | 24.44° C | 14% | 1016.1 hPa | 0 mm | - | - | - |
| 1777501519 | 24.44° C | 14% | 1016.3 hPa | 0 mm | - | - | - |
| 1777501215 | 25° C | 13% | 1016.4 hPa | 0 mm | - | - | - |
| 1777500615 | 25° C | 13% | 1016.6 hPa | 0 mm | - | - | - |
| 1777500319 | 25° C | 13% | 1016.7 hPa | 0 mm | - | - | - |
* Rain latest hour (hover to see other rain measurements)
** Current wind speed in m/s (hover to see current wind gust speed)